Find OneWeb SL0716

NORAD ID: 55177 Int'l Des: 2023-004 Owner: ONEWEBN Country: UK Constellation: oneweb operational
LEOCIRCULARPOLARONEWEB_TYPE

リアルタイム位置

3D地球を読み込み中...

OneWeb SL0716について

説明を読み込み中...

次回通過

Passes for default location (London). Set your location on the main map for personalized predictions.

高度履歴

Loading altitude history...

軌道要素

1 55177U 23004AP 26107.14434148 -.00000009 00000-0 -57079-4 0 9992
2 55177 87.9184 17.9943 0002129 80.7571 279.3802 13.17647435159545
Epoch: Apr 17, 2026 • Age: 12 hours

現在のステータス

高度 1196.2 km
速度 7.26 km/s
衛星直下点 23.49°N, 123.38°E
打ち上げ日 Jan 10, 2023
運用期間 3.2 years
タイプ internet

技術仕様

分類 Payload
質量 148.00 kg
乾燥質量 140.00 kg
総質量 148.00 kg
長さ 1.30 m
直径 1.00 m
スパン 5.00 m
形状 Trapezoid+2 pan
製造者 ONEWUS
バスタイプ ARROW
フェーズステータス In Orbit
所有者/国 ONEWEBN/UK

Most Searched